Weather History for Greenville Downtown, SC

Change the Weather History Date:

Tuesday, February 28, 2012

  Actual Average Record
Temperature  
Mean Temperature 54 °F -  
Max Temperature 66 °F 56 °F 73 °F (2011)
Min Temperature 42 °F 37 °F 19 °F (2002)
Degree Days  
Heating Degree Days 11    
Growing Degree Days 4 (Base 50)    
Moisture  
Dew Point 44 °F    
Average Humidity 68    
Maximum Humidity 100    
Minimum Humidity 36    
Precipitation  
Precipitation 0.01 in - - ()
Sea Level Pressure  
Sea Level Pressure 30.34 in    
Wind  
Wind Speed 3 mph (South)    
Max Wind Speed 13 mph    
Max Gust Speed -    
Visibility 8 miles    
Events Fog    
Averages and records for this station are not official NWS values.
T = Trace of Precipitation, MM = Missing Value Source: NWS Daily Summary

Daily Weather History Graph

Daily Weather History Graph

Search for Another Location

Airport:

Trip Planner

Search our weather history database for the weather conditions in past years. The results will help you decide how hot, cold, wet, or windy it might be!

Date:

Astronomy

Feb. 28, 2012 Rise Set
Actual Time 7:00 AM EST 6:23 PM EST
Civil Twilight 6:35 AM EST 6:49 PM EST
Nautical Twilight 6:05 AM EST 7:18 PM EST
Astronomical Twilight 5:36 AM EST 7:47 PM EST
Moon 10:24 AM EST (2/28) No Moon Set
Length of Visible Light 12h 14m
Length of Day
11h 23m
Waxing Crescent, 37% of the Moon is Illuminated
Feb 28
Waxing Crescent
Feb 29
First Quarter
Mar 8
Full
Mar 14
Last Quarter
Mar 22
New

Hourly Weather History & Observations

Time (EST) Temp. Dew Point Humidity Pressure Visibility Wind Dir Wind Speed Gust Speed Precip Events Conditions
12:53 AM 51.1 °F 46.9 °F 86% 30.36 in 10.0 mi Calm Calm - N/A   Clear
1:53 AM 48.9 °F 45.0 °F 86% 30.36 in 10.0 mi Calm Calm - N/A   Clear
2:53 AM 46.0 °F 43.0 °F 89% 30.35 in 10.0 mi Calm Calm - N/A   Clear
3:53 AM 46.9 °F 44.1 °F 90% 30.35 in 10.0 mi Calm Calm - N/A   Clear
4:53 AM 46.0 °F 43.0 °F 89% 30.35 in 9.0 mi Calm Calm - N/A   Clear
5:53 AM 44.1 °F 42.1 °F 93% 30.36 in 0.8 mi Calm Calm - N/A   Mist
6:02 AM 44.6 °F 42.8 °F 93% 30.36 in 0.2 mi Calm Calm - N/A Fog Fog
6:25 AM 42.8 °F 41.0 °F 93% 30.37 in 0.2 mi Calm Calm - N/A Fog Fog
6:45 AM 42.8 °F 42.8 °F 100% 30.38 in 1.0 mi Calm Calm - N/A   Mist
6:53 AM 42.1 °F 41.0 °F 96% 30.38 in 4.0 mi Calm Calm - N/A   Mist
7:53 AM 46.0 °F 44.1 °F 93% 30.40 in 9.0 mi Calm Calm - N/A   Unknown
8:53 AM 52.0 °F 42.1 °F 69% 30.40 in 10.0 mi NE 6.9 mph - N/A   Clear
9:53 AM 57.0 °F 41.0 °F 55% 30.41 in 10.0 mi ENE 12.7 mph - N/A   Partly Cloudy
10:53 AM 60.1 °F 41.0 °F 49% 30.41 in 10.0 mi East 8.1 mph - 0.01 in   Clear
11:53 AM 62.1 °F 41.0 °F 46% 30.40 in 10.0 mi East 3.5 mph - N/A   Clear
12:53 PM 66.0 °F 39.9 °F 38% 30.36 in 10.0 mi SE 9.2 mph - N/A   Clear
1:53 PM 66.0 °F 37.9 °F 36% 30.34 in 10.0 mi South 8.1 mph - N/A   Clear
2:53 PM 66.9 °F 39.9 °F 37% 30.32 in 10.0 mi Variable 4.6 mph - N/A   Clear
3:53 PM 66.9 °F 42.1 °F 40% 30.30 in 10.0 mi SSE 10.4 mph - N/A   Clear
4:53 PM 66.0 °F 43.0 °F 43% 30.30 in 10.0 mi South 10.4 mph - N/A   Mostly Cloudy
5:53 PM 64.9 °F 44.1 °F 47% 30.31 in 10.0 mi South 10.4 mph - N/A   Mostly Cloudy
6:53 PM 63.0 °F 44.1 °F 50% 30.31 in 10.0 mi South 6.9 mph - N/A   Overcast
7:53 PM 60.1 °F 48.0 °F 64% 30.30 in 10.0 mi Calm Calm - 0.00 in   Mostly Cloudy
8:53 PM 60.1 °F 46.9 °F 62% 30.30 in 10.0 mi South 3.5 mph - N/A   Overcast
9:53 PM 60.1 °F 46.9 °F 62% 30.30 in 10.0 mi SSW 3.5 mph - N/A   Overcast
10:53 PM 59.0 °F 48.0 °F 67% 30.29 in 10.0 mi SW 4.6 mph - N/A   Overcast
11:08 PM 59.0 °F 48.2 °F 67% 30.29 in 10.0 mi West 4.6 mph - N/A   Overcast
11:43 PM 59.0 °F 48.2 °F 67% 30.28 in 10.0 mi WNW 3.5 mph - N/A   Overcast
11:53 PM 57.9 °F 48.0 °F 70% 30.27 in 10.0 mi West 3.5 mph - N/A   Overcast